Regional Weather Roundup
Issued by NWS Green Bay, WI

Home | Current Version | Previous Version | Text Only | Print | Product List | Glossary On
Versions: 1 2 3 4 5 6 7 8 9 10 11 12 13 14 15 16 17 18 19 20 21 22 23 24 25 26 27 28 29 30 31 32 33 34 35 36 37 38 39 40 41 42 43 44 45 46 47 48 49 50
129
ASUS43 KGRB 231211
RWRGRB

NORTH-CENTRAL AND NORTHEAST WISCONSIN REGIONAL WEATHER ROUNDUP
NATIONAL WEATHER SERVICE GREEN BAY WI
700 AM CDT THU MAR 23 2017

WIZ005-009-010>012-018-019-231300-
NORTH CENTRAL WISCONSIN

CITY           SKY/WX    TMP DP  RH WIND       PRES   REMARKS
IRONWOOD       LGT SNOW  28  25  86 S7G16     30.26S VSB 1
MANITOWISH WTR LGT SNOW  25  25 100 S8        30.27R
ARBOR VITAE    LGT SNOW  27  24  89 S7        30.28R
EAGLE RIVER    CLOUDY    26  17  69 S6        30.29S
LAND O LAKES   CLOUDY    27  19  72 S5        30.29F
RHINELANDER    LGT SNOW  28  19  69 S8        30.31S
PHILLIPS       LGT SNOW  26  25  94 SE9       30.26F
ANTIGO         CLOUDY    24  18  76 S9        30.33S
TOMAHAWK       LGT SNOW  25  22  87 SE3       30.30F VSB 1
MERRILL        LGT SNOW  27  19  72 SE7       30.32F
$$

WIZ013-073-231300-
NORTHEAST WISCONSIN

CITY           SKY/WX    TMP DP  RH WIND       PRES   REMARKS
IRON MOUNTAIN  CLOUDY    25  15  66 SE7       30.34F
MARINETTE        N/A    N/A N/A N/A MISG        N/A
OCONTO         CLOUDY    27  21  79 CALM      30.41F
$$

WIZ017-030-035>037-045-231300-
CENTRAL WISCONSIN

CITY           SKY/WX    TMP DP  RH WIND       PRES   REMARKS
MEDFORD        CLOUDY    27  20  75 SE9       30.27F
WAUSAU         CLOUDY    27  17  66 SE7       30.31F
MOSINEE        CLOUDY    27  19  74 SE7       30.34S
MARSHFIELD     CLOUDY    28  19  69 SE12      30.29F
WISC RAPIDS    CLOUDY    28  19  69 SE8       30.35S
STEVENS POINT  FLURRIES  25  18  74 SE6       30.35S
WAUPACA        CLOUDY    29  21  71 SE3       30.39S
SHAWANO        CLOUDY    29  21  73 CALM      30.39F
CLINTONVILLE   CLOUDY    28  21  74 S7        30.39S
WAUTOMA        CLOUDY    28  22  78 SE8       30.38
$$

WIZ038-039-048-051-231300-
FOX VALLEY

CITY           SKY/WX    TMP DP  RH WIND       PRES   REMARKS
NWS GREEN BAY  CLOUDY    29  24  82 S3        30.41F
APPLETON       CLOUDY    28  19  69 VRB5      30.38F
OSHKOSH        CLOUDY    30  23  75 SE7       30.38F
FOND DU LAC    CLOUDY    31  23  72 SE8       30.39F
$$

WIZ022-050-052-231300-
EAST CENTRAL WISCONSIN

CITY           SKY/WX    TMP DP  RH WIND       PRES   REMARKS
EPHRAIM        PTSUNNY   29  25  83 S5        30.41S
WASHINGTON ISL CLOUDY    31  24  78 S7        30.42S
STURGEON BAY   CLOUDY    30  25  81 S7        30.42S
MANITOWOC      CLOUDY    33  26  75 S10       30.42F
SHEBOYGAN      CLOUDY    28  25  88 CALM      30.41F
$$

LMZ563-521-522-541>543-231300-
LAKESHORE

STATION/POSITION TIME  TEMP    WIND        PRES    VSBY  WAVE
                       AIR SEA DIR/SP/G                  HT/PER
                 (UTC) (F)     (DEG/KT/KT) (MB)    (MI)  (FT/S)
SHEBOYGAN LKSHOR 1200   35     180/ 15/ 17 1030.7F
KEWAUNEE LKSHORE 1148   33     190/ 13/ 17 1029.4F
NORTHPORT PIER   1140   31     160/  2/  8 1030.1S
SISTER BAY LKSHO 1121   29        CALM       N/A
CHAMBERS ISLAND  1140   28      CALM  /  3 1029.5F
MENOMINEE LKSHOR 1148   29     180/  6/  9 1028.9F
$$




USA.gov is the U.S. government's official web portal to all federal, state and local government web resources and services.